星链-1871 (STARLINK-1871 )

导读 | 星芒AI

STARLINK-1871 是 SpaceX Starlink 卫星互联网项目中的第 1871 颗卫星,属于低轨卫星群,旨在为全球用户提供高速互联网服务。该卫星于 2023 年发射,运行在约 550 公里的轨道高度,采用先进通信技术,具备高带宽和低延迟特性。Starlink 项目通过部署大量卫星,构建覆盖全球的宽带网络,尤其服务于偏远和网络基础设施薄弱的地区。STARLINK-1871 的加入进一步增强了 Starlink 网络的稳定性和覆盖能力。

基本信息
目录编号:
47157
目录名称:
STARLINK-1871
国际标识:
2020-088AM
轨道中心:
EARTH
卫星名称:
星链-1871
卫星全名:
星链-1871 (STARLINK-1871 )
卫星状态:
在轨 (已飞行1799 天)
发射日期:
2020-11-25 UTC
国别 :
美国 (US)
星等 :
--
轨道信息
数据来源 国际轨道数据 AOE轨道数据
星历时间 2025-10-29T16:26:04+0800
10小时前
查看轨道信息
2025-10-29T03:00:00+0800
23小时前
查看轨道信息
半长轴 6925.367km 6925.357km
偏心率 0.0001482 0.0001381
轨道倾角 53.055° 53.053°
近地点辐角 90.292° 110.812°
升交点赤经 171.220° 173.730°
平近点角 269.824° 91.998°
近地点 546.205km 546.265km
远地点 548.259km 548.179km
周期 95.593分钟 95.592分钟
每日圈数 15.063943 15.063973
详细信息
固有亮度:
5
最大亮度:
2.5
卫星平台:
Starlink V1.0
覆盖范围:
全球
运营商:
太空探索技术公司
运营商所在国:
美国
制造商(研发单位):
太空探索技术公司
制造商所在国:
美国
使用方式:
暂无
卫星简介
星链(Starlink)计划是由太空探索技术公司(SpaceX)提出的一个巨型低轨卫星互联网星座项目,计划在2019年至2024年间在太空搭建由约1.2万颗卫星组成的“星链”网络,其中1584颗将部署在地球上空550千米处的近地轨道,并从2020年开始工作。该卫星仍在工作。
2D轨道图
3D轨道图
轨道高度分析图
轨道倾角分析图
轨道综合分析图
查看轨道综合分析图